CALSPHERE 1 1 00900U 64063C 26236.49444567 .00000479 00000+0 47688-3 0 9995 2 00900 90.2175 73.3574 0027994 85.5416 0.7469 13.76685537 80829 CALSPHERE 2 1 00902U 64063E 26236.51790808 .00000046 00000+0 55697-4 0 9992 2 00902 90.2292 77.4093 0019714 34.1645 29.2770 13.52904649865506 LCS 1 1 01361U 65034C 26236.63465148 .00000002 00000+0 -79876-3 0 9997 2 01361 32.1462 14.5047 0011719 3.9506 356.1083 9.89310607216664 TEMPSAT 1 1 01512U 65065E 26236.43282847 .00000036 00000+0 53885-4 0 9999 2 01512 90.0018 212.5998 0071477 57.8807 95.3773 13.33597370969140 CALSPHERE 4A 1 01520U 65065H 26236.65719081 .00000072 00000+0 12195-3 0 9995 2 01520 89.8944 121.8068 0067905 270.8518 120.7091 13.36288320971852 OPS 5712 (P/L 160) 1 02826U 67053A 26236.53245598 .00006057 00000+0 83863-3 0 9997 2 02826 69.9143 230.6675 0004506 283.9100 76.1547 14.78476555 76330 OPS 5712 (P/L 153) 1 02874U 67053H 26236.22353120 -.00000014 00000+0 28548-4 0 9995 2 02874 69.9761 329.4745 0004789 116.7202 243.4394 13.96836745 16291 RIGIDSPHERE 2 (LCS 4) 1 05398U 71067E 26236.59906292 .00000417 00000+0 12947-3 0 9994 2 05398 87.6245 319.8232 0059864 8.1760 352.0399 14.37940211883711 COSMOS 2493 (SKRL-756 1) 1 39490U 13078A 26236.55598058 .00003208 00000+0 23956-3 0 9998 2 39490 82.4128 194.2845 0013657 20.7605 339.4172 15.02454839688223 COSMOS 2494 (SKRL-756 2) 1 39491U 13078B 26236.56298059 .00002716 00000+0 18801-3 0 9994 2 39491 82.4134 183.3815 0014960 339.1111 20.9502 15.05215193689090